Carnival Vista — 3EMB9 — position and weather

sailwx.info

Track history (hours):
 
Tides and Currents Weather Stations Pressure Air Temp Water Temp Dewpoint Dewpoint Depression Visibility Wind Speed Wind Dir Waves Ship Positions

Carnival Vista

Last reported at 2017-Mar-25 22:33 UTC. Time now 2017-Mar-30 22:51 UTC.
Position N 25°40' W 079°57'.

Length 324 m; draft 8.6 m.

Type: Passenger vessel. MMSI: 356883000.

Date/timePositionNaut miles runAvg speedWind from/ knotsBaromVisibWave heightAir tempDewpointWater temp
2017-Mar-25 22:33N 25°40' W 079°57'1111.1
2017-Mar-25 21:33N 25°46' W 080°08'2 1.9
2017-Mar-25 20:28N 25°47' W 080°10'0 0.0
2017-Mar-25 19:31N 25°47' W 080°10'0 0.0
2017-Mar-25 18:31N 25°47' W 080°10'0 0.0
2017-Mar-25 17:25N 25°47' W 080°10'0 0.0
2017-Mar-25 16:31N 25°47' W 080°10'0 0.0
2017-Mar-25 15:28N 25°47' W 080°10'0 0.0
2017-Mar-25 14:28N 25°47' W 080°10'0 0.0
2017-Mar-25 13:31N 25°47' W 080°10'0 0.0
2017-Mar-25 12:31N 25°47' W 080°10'0 0.0
2017-Mar-25 11:31N 25°47' W 080°10'0 0.0
2017-Mar-25 10:31N 25°47' W 080°10'0 0.0
2017-Mar-25 09:31N 25°47' W 080°10'0 0.0
2017-Mar-25 08:33N 25°47' W 080°10'2 2.4
2017-Mar-25 07:34N 25°46' W 080°08'9 9.0
2017-Mar-25 06:33N 25°43' W 079°58'1918.8
2017-Mar-25 05:33N 25°27' W 079°46'49716.0
2017-Mar-23 22:33N 20°30' W 086°59'2 1.6
2017-Mar-23 21:32N 20°29' W 086°59'0 0.0
2017-Mar-23 20:32N 20°29' W 086°59'0 0.0
2017-Mar-23 19:32N 20°29' W 086°59'0 0.0
2017-Mar-23 18:32N 20°29' W 086°59'0 0.0
2017-Mar-23 17:32N 20°29' W 086°59'0 0.0
2017-Mar-23 16:32N 20°29' W 086°59'0 0.0
2017-Mar-23 15:32N 20°29' W 086°59'0 0.0
2017-Mar-23 14:32N 20°29' W 086°59'0 0.1
2017-Mar-23 13:33N 20°29' W 086°59'8 8.4
2017-Mar-23 12:33N 20°36' W 086°55'  
2017-Mar-19 21:33N 25°44' W 080°00'9 9.2
2017-Mar-19 20:34N 25°47' W 080°10'0 0.0
2017-Mar-19 19:32N 25°47' W 080°10'0 0.0
2017-Mar-19 18:29N 25°47' W 080°10'0 0.0
2017-Mar-19 17:32N 25°47' W 080°10'0 0.0
2017-Mar-19 16:32N 25°47' W 080°10'0 0.0
2017-Mar-19 15:32N 25°47' W 080°10'0 0.0
2017-Mar-19 14:32N 25°47' W 080°10'0 0.0
2017-Mar-19 13:32N 25°47' W 080°10'0 0.0
2017-Mar-19 12:32N 25°47' W 080°10'0 0.0
2017-Mar-19 11:32N 25°47' W 080°10'0 0.0
2017-Mar-19 10:29N 25°47' W 080°10'0 0.0
2017-Mar-19 09:33N 25°47' W 080°10'2 1.7
2017-Mar-19 08:33N 25°46' W 080°08'1111.0
2017-Mar-19 07:34N 25°48' W 079°56'1312.7
2017-Mar-19 06:33N 25°38' W 079°47'2419.9
2017-Mar-19 05:22N 25°16' W 079°39'  
Track history (hours):
 
Tides and Currents Weather Stations Pressure Air Temp Water Temp Dewpoint Dewpoint Depression Visibility Wind Speed Wind Dir Waves Ship Positions

Carnival Vista

Last reported at 2017-Mar-25 22:33 UTC. Time now 2017-Mar-30 22:51 UTC.
Position N 25°40' W 079°57'.

Length 324 m; draft 8.6 m.

Type: Passenger vessel. MMSI: 356883000.

Date/timePositionNaut miles runAvg speedWind from/ knotsBaromVisibWave heightAir tempDewpointWater temp
2017-Mar-25 22:33N 25°40' W 079°57'1111.1
2017-Mar-25 21:33N 25°46' W 080°08'2 1.9
2017-Mar-25 20:28N 25°47' W 080°10'0 0.0
2017-Mar-25 19:31N 25°47' W 080°10'0 0.0
2017-Mar-25 18:31N 25°47' W 080°10'0 0.0
2017-Mar-25 17:25N 25°47' W 080°10'0 0.0
2017-Mar-25 16:31N 25°47' W 080°10'0 0.0
2017-Mar-25 15:28N 25°47' W 080°10'0 0.0
2017-Mar-25 14:28N 25°47' W 080°10'0 0.0
2017-Mar-25 13:31N 25°47' W 080°10'0 0.0
2017-Mar-25 12:31N 25°47' W 080°10'0 0.0
2017-Mar-25 11:31N 25°47' W 080°10'0 0.0
2017-Mar-25 10:31N 25°47' W 080°10'0 0.0
2017-Mar-25 09:31N 25°47' W 080°10'0 0.0
2017-Mar-25 08:33N 25°47' W 080°10'2 2.4
2017-Mar-25 07:34N 25°46' W 080°08'9 9.0
2017-Mar-25 06:33N 25°43' W 079°58'1918.8
2017-Mar-25 05:33N 25°27' W 079°46'49716.0
2017-Mar-23 22:33N 20°30' W 086°59'2 1.6
2017-Mar-23 21:32N 20°29' W 086°59'0 0.0
2017-Mar-23 20:32N 20°29' W 086°59'0 0.0
2017-Mar-23 19:32N 20°29' W 086°59'0 0.0
2017-Mar-23 18:32N 20°29' W 086°59'0 0.0
2017-Mar-23 17:32N 20°29' W 086°59'0 0.0
2017-Mar-23 16:32N 20°29' W 086°59'0 0.0
2017-Mar-23 15:32N 20°29' W 086°59'0 0.0
2017-Mar-23 14:32N 20°29' W 086°59'0 0.1
2017-Mar-23 13:33N 20°29' W 086°59'8 8.4
2017-Mar-23 12:33N 20°36' W 086°55'  
2017-Mar-19 21:33N 25°44' W 080°00'9 9.2
2017-Mar-19 20:34N 25°47' W 080°10'0 0.0
2017-Mar-19 19:32N 25°47' W 080°10'0 0.0
2017-Mar-19 18:29N 25°47' W 080°10'0 0.0
2017-Mar-19 17:32N 25°47' W 080°10'0 0.0
2017-Mar-19 16:32N 25°47' W 080°10'0 0.0
2017-Mar-19 15:32N 25°47' W 080°10'0 0.0
2017-Mar-19 14:32N 25°47' W 080°10'0 0.0
2017-Mar-19 13:32N 25°47' W 080°10'0 0.0
2017-Mar-19 12:32N 25°47' W 080°10'0 0.0
2017-Mar-19 11:32N 25°47' W 080°10'0 0.0
2017-Mar-19 10:29N 25°47' W 080°10'0 0.0
2017-Mar-19 09:33N 25°47' W 080°10'2 1.7
2017-Mar-19 08:33N 25°46' W 080°08'1111.0
2017-Mar-19 07:34N 25°48' W 079°56'1312.7
2017-Mar-19 06:33N 25°38' W 079°47'2419.9
2017-Mar-19 05:22N 25°16' W 079°39'  

Dump ship's entire track history